Content
SEND FEEDBACK

Daily
Averages
Monthly
Summary
United States of America

GREAT FALLS, MONTANA


Home > North America > United States > Montana
Elevation: 3663 feet     Latitude: 47 29N     Longitude: 111 22W

WEATHER
 
SELECT A DAY
Number of Records: 199,952;   Date Range: 1/1/95 - 10/21/14
 
SHARE

PRINT THIS DATA

[ ← Previous Day ]
WEATHER ALMANAC - FEBRUARY 13, 2013
[ Next Day → ]
[ °C ]   °F
Weather ElementAverageHighLow
Temperature34.3 °F48.9 °F (12:53 pm)24.8 °F (11:44 pm)
Dewpoint22.2 °F27 °F (8:53 am)14 °F (1:53 pm)
Humidity65.6 %86 % (8:23 pm)25 % (1:53 pm)
Barometer30.07 in30.32 in (11:53 pm)29.86 in (2:53 am)
Wind Speed15.9 mph32.2 mph (11:53 am)
Wind Gust43.7 mph (11:53 am)
Weather ElementAverage
Visibility5.9 mi
Wind DirectionSSE (141.2 °)

Weather ElementTotal
Precipitation0.34 in
Heating Degree Days28.2 (Base 65)
Averaged from 41 records on February 13, 2013
WEATHER CONDITIONS BREAKOUT
WIND DIRECTION BREAKOUT
WEATHER BY HOUR - FEBRUARY 13, 2013
[ °C ]   °F
Local TimeTemperatureDewpointHumidityBarometerVisibilityWind DirectionWind SpeedGust SpeedPrecipitationEventsConditions
1:53 AM39.9 °F24.1 °F53 %29.88 in10.0 miSW (230°)21.9 mph27.6 mphClear
2:53 AM42.1 °F23.0 °F47 %29.86 in10.0 miWSW (240°)27.6 mph33.4 mphClear
3:53 AM39.9 °F24.1 °F53 %29.87 in10.0 miSW (230°)21.9 mphClear
4:53 AM39.9 °F23.0 °F51 %29.89 in10.0 miSW (230°)11.5 mphOvercast
5:53 AM41.0 °F24.1 °F51 %29.89 in10.0 miSW (230°)17.3 mphOvercast
6:53 AM39.9 °F25.0 °F55 %29.90 in10.0 miSW (230°)18.4 mphOvercast
7:53 AM39.0 °F25.0 °F57 %29.94 in10.0 miWSW (250°)8.1 mphOvercast
8:53 AM41.0 °F27.0 °F57 %29.92 in10.0 miWSW (250°)13.8 mph0.00 inScattered Clouds
9:53 AM43.0 °F27.0 °F53 %29.94 in10.0 miWest (280°)17.3 mphClear
10:53 AM46.0 °F26.1 °F46 %29.95 in10.0 miWNW (290°)24.2 mph31.1 mphClear
11:53 AM48.0 °F16.0 °F28 %29.95 in9.0 miWest (280°)32.2 mph43.7 mphClear
12:53 PM48.9 °F15.1 °F26 %29.96 in10.0 miWest (280°)29.9 mph39.1 mphClear
1:53 PM48.9 °F14.0 °F25 %29.95 in10.0 miWest (280°)26.5 mph39.1 mphClear
2:53 PM46.0 °F15.1 °F29 %29.97 in10.0 miWest (280°)26.5 mph31.1 mphClear
3:53 PM45.0 °F15.1 °F30 %29.99 in10.0 miWNW (290°)31.1 mph38.0 mphPartly Cloudy
4:53 PM44.1 °F17.1 °F34 %30.02 in10.0 miWest (280°)17.3 mphScattered Clouds
5:53 PM39.0 °F18.0 °F43 %30.05 in10.0 miWest (270°)15.0 mphScattered Clouds
6:53 PM37.0 °F21.9 °F54 %30.11 in10.0 miNNE (30°)8.1 mphMostly Cloudy
7:53 PM32.0 °F27.0 °F82 %30.17 in4.0 miNE (40°)13.8 mph0.00 inSnowLight Snow
8:03 PM32.0 °F26.6 °F80 %30.08 in4.0 miNE (40°)17.3 mph0.00 inSnowLight Snow
8:16 PM30.2 °F24.8 °F80 %30.09 in2.5 miNE (50°)16.1 mph0.00 inSnowLight Snow
8:23 PM30.2 °F26.6 °F86 %30.10 in1.2 miNE (50°)16.1 mph0.00 inSnowLight Snow
8:34 PM30.2 °F26.6 °F86 %30.09 in0.8 miENE (60°)18.4 mph0.01 inSnowLight Snow
8:53 PM28.9 °F25.0 °F85 %30.22 in0.8 miNE (40°)18.4 mph0.02 inSnowLight Snow
8:58 PM28.4 °F24.8 °F86 %30.12 in1.0 miNE (40°)18.4 mph0.00 inSnowLight Snow
9:11 PM28.4 °F24.8 °F86 %30.13 in0.8 miNorth (10°)17.3 mph24.2 mph0.01 inSnowLight Snow
9:26 PM26.6 °F23.0 °F86 %30.13 in0.2 miNE (40°)13.8 mph0.02 inFog-SnowHeavy Snow
9:38 PM26.6 °F23.0 °F86 %30.14 in1.0 miNNE (30°)15.0 mph0.04 inSnowLight Snow
9:41 PM26.6 °F23.0 °F86 %30.14 in2.0 miNNE (30°)15.0 mph0.05 inSnowLight Snow
9:47 PM26.6 °F21.2 °F80 %30.14 in6.0 miNNE (30°)17.3 mph23.0 mph0.05 inSnowLight Snow
9:53 PM27.0 °F21.0 °F78 %30.25 in9.0 miNE (40°)15.0 mph0.05 inOvercast
10:11 PM26.6 °F21.2 °F80 %30.17 in1.8 miNNE (30°)10.4 mph0.00 inSnowLight Snow
10:22 PM26.6 °F21.2 °F80 %30.18 in1.2 miNNE (30°)9.2 mph0.01 inSnowLight Snow
10:28 PM26.6 °F21.2 °F80 %30.18 in1.5 miNNE (30°)10.4 mph0.01 inSnowLight Snow
10:36 PM26.6 °F21.2 °F80 %30.18 in2.0 miNNE (20°)9.2 mph0.01 inSnowLight Snow
10:46 PM26.6 °F21.2 °F80 %30.19 in1.0 miNorth (10°)6.9 mph0.01 inSnowLight Snow
10:53 PM26.1 °F21.9 °F84 %30.30 in1.0 miNorth (10°)6.9 mph0.01 inSnowLight Snow
11:05 PM26.6 °F21.2 °F80 %30.20 in1.5 miNorth (10°)8.1 mph0.01 inSnowLight Snow
11:30 PM26.6 °F21.2 °F80 %30.22 in5.0 miNorth (350°)5.8 mph0.01 inSnowLight Snow
11:44 PM24.8 °F21.2 °F86 %30.22 in9.0 miNorth (350°)3.5 mph0.01 inOvercast
11:53 PM26.1 °F21.0 °F81 %30.32 in6.0 miCalm0.01 inSnowLight Snow
Hourly data recorded from KGTF, located miles away from Great Falls, Montana







STORIES FROM OUR PARTNERS